Regional Weather Roundup
Issued by NWS

Home | Current Version | Previous Version | Graphics & Text | Print | Product List | Glossary On
Versions: 1 2 3 4 5 6 7 8 9 10 11 12 13 14 15 16 17 18 19 20 21 22 23 24 25 26 27 28 29 30 31 32 33 34 35 36 37 38 39 40 41 42 43 44 45 46 47 48 49 50
000
ASUS43 KMPX 051701
RWRMN
WEATHER ROUNDUP FOR MINNESOTA
NATIONAL WEATHER SERVICE TWIN CITIES/CHANHASSEN MN
1200 PM CDT THU MAY 05 2016


NOTE: "FAIR" INDICATES FEW OR NO CLOUDS BELOW 12,000 FEET WITH NO
SIGNIFICANT WEATHER AND/OR OBSTRUCTIONS TO VISIBILITY. N/A MEANS
CURRENT SKY AND/OR WEATHER CONDITIONS ARE NOT AVAILABLE.

MNZ060>063-068>070-051800-
   Twin Cities Metro

CITY           SKY/WX    TMP DP  RH WIND       PRES   REMARKS
TWIN CITIES    MOSUNNY   64  31  28 S9        30.03F
ST PAUL        MOSUNNY   64  32  30 SW8       30.03F
CRYSTAL        SUNNY     66  30  26 SW8G21    30.02S
BLAINE         PTSUNNY   66  30  26 S8        30.04R
EDEN PRAIRIE   SUNNY     67  30  25 SW9       30.02F
SOUTH ST PAUL  SUNNY     65  32  28 SW6       30.03F
LAKE ELMO      FAIR      61  36  39 S6        30.05F
$$
MNZ001>005-007-008-013>017-022>024-027-028-051800-
   Northwest Minnesota

CITY           SKY/WX    TMP DP  RH WIND       PRES   REMARKS
BEMIDJI        SUNNY     76  39  26 SW8G16    29.88F
HALLOCK        SUNNY     88  39  18 W21G28    29.74F
ROSEAU         SUNNY     81  48  32 SW16      29.77F
WARROAD        SUNNY     77  52  41 SW18      29.77F
THIEF RVR FALL SUNNY     79  43  27 SW16G22   29.84F
CROOKSTON      SUNNY     81  45  28 SW13G21   29.84F
FOSSTON        SUNNY     77  37  24 SW16G24   29.87F
DETROIT LAKES  SUNNY     73  39  29 SW10      29.93F
MOORHEAD       SUNNY     79  43  27 SW10G17   29.89F
PARK RAPIDS    SUNNY     76  36  23 SW14      29.92F
MAHNOMEN       FAIR      76  40  27 SW16G22   29.89F
$$
MNZ006-009>011-018-025>026-051800-
   North Central Minnesota

CITY           SKY/WX    TMP DP  RH WIND       PRES   REMARKS
BAUDETTE       SUNNY     76  41  28 SW14G23   29.79F
FLAG ISLAND    SUNNY     54  45  71 S13       29.73F
INTL FALLS     SUNNY     75  38  26 W15G22    29.81F
WASKISH        SUNNY     73  43  33 SW14G21   29.83F
BIG FORK       SUNNY     75  37  25 SW12G20   29.86F
LONGVILLE      SUNNY     72  30  21 S9G16     29.91F
GRAND RAPIDS   SUNNY     70  34  26 S12       29.92F
CRANE LAKE     SUNNY     68  36  30 SW6       29.86F
ORR            SUNNY     72  30  21 SW12G20   29.84F
COOK           MOSUNNY   68  37  32 S10G17    29.88F
WALKER         FAIR      73  36  25 SW14      29.90F
$$
MNZ012-019>021-037-051800-
   Northeast Minnesota

CITY           SKY/WX    TMP DP  RH WIND       PRES   REMARKS
DULUTH         MOSUNNY   63  35  35 SW15      29.94F
ELY            SUNNY     61  32  33 SW9       29.90F
HIBBING        SUNNY     64  36  35 VRB7      29.91F
EVELETH        SUNNY     64  32  29 SW15      29.92F
DULUTH HARBOR  MOSUNNY   61  41  48 SW13      29.95S
TWO HARBORS    SUNNY     63  43  48 S9        29.91F
SILVER BAY     SUNNY     61  36  39 S7        29.91F
GRAND MARAIS     N/A     40  35  83 S3        29.96F
G MARAIS ARPRT SUNNY     55  30  38 S6        29.93F
$$
MNZ029>031-032-039>041-046>048-054>057-064-051800-
   West Central Minnesota

CITY           SKY/WX    TMP DP  RH WIND       PRES   REMARKS
FERGUS FALLS   SUNNY     77  43  29 SW12G20   29.90F
WHEATON        SUNNY     82  46  28 SW12      29.95F
MORRIS         SUNNY     75  41  29 S14       29.96F
ALEXANDRIA     SUNNY     73  36  25 S13       29.98F
ELBOW LAKE     FAIR      75  43  31 SW17      29.96S
WADENA         SUNNY     73  39  29 S12G17    29.94F
GLENWOOD       SUNNY     73  36  25 S13G18    29.99F
APPLETON       SUNNY     75  36  23 S8        29.97F
BENSON         SUNNY     73  32  21 SW10G21   29.98F
ORTONVILLE     SUNNY     77  39  25 SW9       29.96F
MADISON        SUNNY     75  37  25 SW9       29.98F
WILLMAR        FAIR      72  34  25 SW8       30.02F
$$
MNZ033>034-036-042>043-049>051-058-059-051800-
   Central Minnesota

CITY           SKY/WX    TMP DP  RH WIND       PRES   REMARKS
ST CLOUD       SUNNY     68  32  26 S12       30.00F
SAUK CENTRE    FAIR      71  36  27 S10G16    29.99S
PAYNESVILLE    SUNNY     70  29  21 S9        30.01F
AITKIN         SUNNY     73  21  14 SW12G17   29.94F
PINE RIVER     SUNNY     72  39  30 SW12      29.96F
BRAINERD       SUNNY     69  33  26 S13G21    29.96F
STAPLES        SUNNY     72  34  25 S10G18    29.95F
LONG PRAIRIE   FAIR      70  36  28 S13G20    29.99F
LITTLE FALLS   SUNNY     70  30  23 S8        29.98F
LITCHFIELD     SUNNY     72  30  21 SW3       30.02S
BUFFALO        SUNNY     65  31  27 S9        30.02F
MAPLE LAKE     SUNNY     67  35  30 S9        30.02F
HUTCHINSON     SUNNY     69  33  25 SW6G17    30.03F
$$
MNZ037-044-045-052-053-051800-
   East Central Minnesota

CITY           SKY/WX    TMP DP  RH WIND       PRES   REMARKS
PRINCETON        N/A     68  32  26 S8        30.02R
MORA           PTSUNNY   63  32  31 SW10      30.01F
CAMBRIDGE      LGT RAIN  63  45  51 S3        30.01S
RUSH CITY      CLOUDY    58  37  45 S6        30.03S
HINCKLEY       LGT RAIN  54  41  62 S6        30.01S
CLOQUET        MOSUNNY   63  30  29 SW14      29.95F
MCGREGOR       SUNNY     64  32  29 SW13G18   29.96F
$$
MNZ071>073-080-081-089-090-097-098-051800-
   Southwest Minnesota

CITY           SKY/WX    TMP DP  RH WIND       PRES   REMARKS
MONTEVIDEO     SUNNY     75  39  27 S8        30.01F
GRANITE FALLS  SUNNY     75  37  25 S12       30.02F
CANBY          SUNNY     77  44  31 SW7       30.00F
MARSHALL       SUNNY     74  37  26 SW12      30.01F
REDWOOD FALLS  MOSUNNY   72  32  23 S8        30.02F
OLIVIA         SUNNY     70  32  24 SW8       30.01F
PIPESTONE      SUNNY     70  34  26 SW9       30.04F
WINDOM         SUNNY     70  34  26 S7        30.05S
WORTHINGTON    SUNNY     67  35  30 S7        30.07F
JACKSON        SUNNY     68  30  24 W7        30.07S
TRACY          SUNNY     72  37  28 S6        30.03F
SLAYTON        SUNNY     69  33  26 SW8       30.06S
$$
MNZ065>067-074>077-082>085-091>093-051800-
   South Central Minnesota

CITY           SKY/WX    TMP DP  RH WIND       PRES   REMARKS
MANKATO        SUNNY     64  27  24 SW10      30.05F
NEW ULM        SUNNY     66  30  26 SW5       30.04F
ST JAMES       SUNNY     63  27  25 S3        30.06S
FAIRMONT       SUNNY     64  34  32 SW8       30.06F
GLENCOE        SUNNY     69  36  29 S7        30.03S
OWATONNA       SUNNY     66  25  20 W10       30.05F
WASECA         SUNNY     64  30  27 SW10G16   30.06F
ALBERT LEA     SUNNY     63  28  27 SW6       30.06F
$$
MNZ078>079-086>088-094>096-051800-
   Southeast Minnesota

CITY           SKY/WX    TMP DP  RH WIND       PRES   REMARKS
ROCHESTER      SUNNY     59  31  34 VRB7      30.09S
RED WING       MOSUNNY   63  30  29 S3        30.04F
STANTON        SUNNY     65  30  26 SW7       30.03F
DODGE CENTER   SUNNY     63  30  29 SW8       30.07S
WINONA         SUNNY     61  34  36 E5        30.07F
AUSTIN         SUNNY     61  34  36 SW7       30.07F
PRESTON        SUNNY     58  30  34 W3        30.08S
$$
ABBREVIATIONS USED IN REMARKS
   TC - TEMPERATURES IN CELSIUS
  WCI - WIND CHILL INDEX
   HX - HEAT INDEX
  VSB - VISIBILITY
$$




USA.gov is the U.S. government's official web portal to all federal, state and local government web resources and services.